| time (UTC) | temp F | wind direction | speed MPH | gust MPH | rain 1hr in | rain 24hr in | rain mn in | humidity % | barometer mb |
| 20260503223953 | 60 | 304 | 1.0 | 4.0 | 0.00 | 0.00 | 0.00 | 35 | 1015.6 |
| 20260503223447 | 60 | 149 | 0.0 | 3.0 | 0.00 | 0.00 | 0.00 | 35 | 1015.5 |
| 20260503222941 | 60 | 333 | 0.0 | 3.0 | 0.00 | 0.00 | 0.00 | 36 | 1015.6 |
| 20260503222435 | 60 | 44 | 1.0 | 4.0 | 0.00 | 0.00 | 0.00 | 35 | 1015.6 |
| 20260503221929 | 60 | 300 | 2.0 | 6.0 | 0.00 | 0.00 | 0.00 | 36 | 1015.6 |
| 20260503221423 | 61 | 325 | 2.0 | 6.0 | 0.00 | 0.00 | 0.00 | 35 | 1015.5 |
| 20260503220917 | 60 | 355 | 1.0 | 4.0 | 0.00 | 0.00 | 0.00 | 34 | 1015.5 |
| 20260503220411 | 60 | 265 | 1.0 | 4.0 | 0.00 | 0.00 | 0.00 | 32 | 1015.5 |
| 20260503215905 | 61 | 355 | 1.0 | 5.0 | 0.00 | 0.00 | 0.00 | 33 | 1015.4 |
| 20260503215629 | 61 | 346 | 2.0 | 6.0 | 0.00 | 0.00 | 0.00 | 35 | 1015.5 |
| 20260503215126 | 61 | 107 | 2.0 | 6.0 | 0.00 | 0.00 | 0.00 | 34 | 1015.6 |
| 20260503214346 | 61 | 309 | 2.0 | 7.0 | 0.00 | 0.00 | 0.00 | 34 | 1015.6 |
| 20260503213843 | 61 | 329 | 1.0 | 7.0 | 0.00 | 0.00 | 0.00 | 33 | 1015.5 |
| 20260503213342 | 61 | 338 | 1.0 | 5.0 | 0.00 | 0.00 | 0.00 | 34 | 1015.6 |
| 20260503212843 | 61 | 355 | 1.0 | 8.0 | 0.00 | 0.00 | 0.00 | 34 | 1015.6 |
| 20260503212353 | 61 | 342 | 2.0 | 9.0 | 0.00 | 0.00 | 0.00 | 33 | 1015.6 |
| 20260503211842 | 61 | 344 | 1.0 | 9.0 | 0.00 | 0.00 | 0.00 | 35 | 1015.5 |
| 20260503211341 | 61 | 296 | 1.0 | 7.0 | 0.00 | 0.00 | 0.00 | 33 | 1015.5 |
| 20260503211109 | 61 | 318 | 1.0 | 7.0 | 0.00 | 0.00 | 0.00 | 34 | 1015.6 |
| 20260503210338 | 61 | 209 | 1.0 | 5.0 | 0.00 | 0.00 | 0.00 | 33 | 1015.5 |
| 20260503210109 | 61 | 204 | 0.0 | 5.0 | 0.00 | 0.00 | 0.00 | 32 | 1015.4 |
| 20260503205336 | 61 | 315 | 2.0 | 11.0 | 0.00 | 0.00 | 0.00 | 35 | 1015.5 |
| 20260503204835 | 61 | 309 | 4.0 | 11.0 | 0.00 | 0.00 | 0.00 | 33 | 1015.5 |
| 20260503204335 | 61 | 50 | 4.0 | 13.0 | 0.00 | 0.00 | 0.00 | 34 | 1015.5 |
| 20260503203834 | 61 | 355 | 4.0 | 13.0 | 0.00 | 0.00 | 0.00 | 33 | 1015.5 |
| 20260503203606 | 62 | 331 | 4.0 | 11.0 | 0.00 | 0.00 | 0.00 | 37 | 1015.5 |
| 20260503202835 | 62 | 71 | 3.0 | 11.0 | 0.00 | 0.00 | 0.00 | 34 | 1015.5 |
| 20260503202335 | 62 | 5 | 1.0 | 5.0 | 0.00 | 0.00 | 0.00 | 34 | 1015.5 |
| 20260503201835 | 62 | 143 | 1.0 | 5.0 | 0.00 | 0.00 | 0.00 | 36 | 1015.6 |
| 20260503201329 | 62 | 257 | 1.0 | 5.0 | 0.00 | 0.00 | 0.00 | 34 | 1015.6 |
| 20260503200823 | 61 | 19 | 2.0 | 5.0 | 0.00 | 0.00 | 0.00 | 37 | 1015.6 |
| 20260503200317 | 61 | 307 | 2.0 | 7.0 | 0.00 | 0.00 | 0.00 | 34 | 1015.7 |
| 20260503195811 | 61 | 245 | 2.0 | 9.0 | 0.00 | 0.00 | 0.00 | 34 | 1015.8 |
| 20260503195305 | 61 | 315 | 2.0 | 9.0 | 0.00 | 0.00 | 0.00 | 37 | 1015.7 |
| 20260503194759 | 60 | 355 | 3.0 | 9.0 | 0.00 | 0.00 | 0.00 | 34 | 1015.8 |
| 20260503194253 | 61 | 329 | 3.0 | 11.0 | 0.00 | 0.00 | 0.00 | 39 | 1015.9 |
| 20260503193746 | 61 | 5 | 2.0 | 11.0 | 0.00 | 0.00 | 0.00 | 36 | 1015.9 |
| 20260503193241 | 61 | 11 | 2.0 | 9.0 | 0.00 | 0.00 | 0.00 | 36 | 1016.0 |
| 20260503192735 | 61 | 292 | 2.0 | 11.0 | 0.00 | 0.00 | 0.00 | 35 | 1016.1 |
| 20260503192228 | 61 | 43 | 2.0 | 11.0 | 0.00 | 0.00 | 0.00 | 40 | 1016.1 |
| 20260503191722 | 60 | 345 | 3.0 | 11.0 | 0.00 | 0.00 | 0.00 | 37 | 1016.3 |
| 20260503191447 | 60 | 44 | 3.0 | 11.0 | 0.00 | 0.00 | 0.00 | 37 | 1016.4 |
| 20260503190711 | 60 | 42 | 2.0 | 8.0 | 0.00 | 0.00 | 0.00 | 36 | 1016.4 |
| 20260503190205 | 61 | 333 | 2.0 | 8.0 | 0.00 | 0.00 | 0.00 | 36 | 1016.5 |
| 20260503185659 | 61 | 260 | 4.0 | 10.0 | 0.00 | 0.00 | 0.00 | 36 | 1016.5 |
| 20260503185153 | 61 | 342 | 4.0 | 10.0 | 0.00 | 0.00 | 0.00 | 37 | 1016.6 |
| 20260503184647 | 61 | 311 | 3.0 | 8.0 | 0.00 | 0.00 | 0.00 | 36 | 1016.5 |
| 20260503184141 | 61 | 25 | 3.0 | 8.0 | 0.00 | 0.00 | 0.00 | 39 | 1016.5 |
| 20260503183906 | 61 | 355 | 3.0 | 8.0 | 0.00 | 0.00 | 0.00 | 37 | 1016.5 |
| 20260503183141 | 61 | 338 | 3.0 | 8.0 | 0.00 | 0.00 | 0.00 | 36 | 1016.6 |
| 20260503182623 | 62 | 333 | 3.0 | 9.0 | 0.00 | 0.00 | 0.00 | 39 | 1016.6 |
| 20260503182348 | 61 | 46 | 3.0 | 9.0 | 0.00 | 0.00 | 0.00 | 38 | 1016.7 |
| 20260503181611 | 60 | 267 | 3.0 | 10.0 | 0.00 | 0.00 | 0.00 | 37 | 1016.7 |
| 20260503181108 | 61 | 77 | 4.0 | 11.0 | 0.00 | 0.00 | 0.00 | 36 | 1016.7 |
| 20260503181102 | 61 | 11 | 3.0 | 11.0 | 0.00 | 0.00 | 0.00 | 39 | 1016.7 |
| 20260503180105 | 62 | 290 | 3.0 | 12.0 | 0.00 | 0.00 | 0.00 | 35 | 1016.7 |
| 20260503175547 | 60 | 231 | 3.0 | 12.0 | 0.00 | 0.01 | 0.00 | 38 | 1016.7 |
| 20260503175041 | 61 | 301 | 3.0 | 11.0 | 0.00 | 0.01 | 0.00 | 37 | 1016.7 |
| 20260503174535 | 60 | 300 | 4.0 | 11.0 | 0.00 | 0.01 | 0.00 | 38 | 1016.7 |
| 20260503174029 | 60 | 0 | 4.0 | 11.0 | 0.00 | 0.01 | 0.00 | 42 | 1016.9 |
| 20260503173523 | 61 | 281 | 2.0 | 11.0 | 0.00 | 0.01 | 0.00 | 36 | 1016.9 |
| 20260503173017 | 60 | 53 | 2.0 | 8.0 | 0.00 | 0.01 | 0.00 | 39 | 1017.0 |
| 20260503172742 | 60 | 14 | 2.0 | 5.0 | 0.00 | 0.01 | 0.00 | 37 | 1017.0 |
| 20260503172005 | 60 | 45 | 4.0 | 15.0 | 0.00 | 0.01 | 0.00 | 40 | 1017.0 |
| 20260503171458 | 59 | 294 | 5.0 | 15.0 | 0.00 | 0.01 | 0.00 | 41 | 1017.1 |
| 20260503170953 | 60 | 32 | 6.0 | 16.0 | 0.00 | 0.01 | 0.00 | 39 | 1017.1 |
| 20260503170447 | 59 | 0 | 5.0 | 16.0 | 0.00 | 0.01 | 0.00 | 39 | 1017.0 |
| 20260503150729 | 58 | 207 | 4.0 | 13.0 | 0.00 | 0.04 | 0.00 | 44 | 1017.4 |
| 20260503150223 | 58 | 44 | 4.0 | 13.0 | 0.00 | 0.04 | 0.00 | 40 | 1017.4 |
| 20260503140111 | 56 | 55 | 4.0 | 12.0 | 0.00 | 0.04 | 0.00 | 47 | 1017.3 |
| 20260503131011 | 54 | 349 | 5.0 | 16.0 | 0.00 | 0.04 | 0.00 | 46 | 1017.1 |
| 20260503130505 | 53 | 334 | 4.0 | 11.0 | 0.00 | 0.04 | 0.00 | 49 | 1017.1 |
| 20260503130230 | 54 | 326 | 5.0 | 13.0 | 0.00 | 0.04 | 0.00 | 48 | 1017.0 |
| 20260503110747 | 51 | 339 | 4.0 | 11.0 | 0.00 | 0.04 | 0.00 | 51 | 1015.8 |
| 20260503110241 | 51 | 5 | 5.0 | 11.0 | 0.00 | 0.04 | 0.00 | 52 | 1015.7 |
| 20260503100128 | 53 | 338 | 3.0 | 9.0 | 0.00 | 0.04 | 0.00 | 57 | 1014.4 |
| 20260503081423 | 49 | 317 | 1.0 | 4.0 | 0.00 | 0.04 | 0.00 | 68 | 1013.1 |
| 20260503080917 | 49 | 20 | 1.0 | 7.0 | 0.00 | 0.04 | 0.00 | 69 | 1012.9 |
| 20260503080410 | 49 | 338 | 1.0 | 7.0 | 0.00 | 0.04 | 0.00 | 70 | 1012.7 |
| 20260503072829 | 47 | 5 | 0.0 | 0.0 | 0.00 | 0.04 | 0.00 | 69 | 1012.5 |
| 20260503072323 | 48 | 5 | 0.0 | 0.0 | 0.00 | 0.04 | 0.00 | 68 | 1012.6 |
| 20260503071817 | 48 | 5 | 0.0 | 0.0 | 0.00 | 0.04 | 0.00 | 68 | 1012.5 |
| 20260503071311 | 48 | 5 | 0.0 | 0.0 | 0.00 | 0.04 | 0.00 | 67 | 1012.3 |
| 20260503070804 | 48 | 5 | 0.0 | 0.0 | 0.00 | 0.04 | 0.00 | 67 | 1012.3 |
| 20260503070259 | 48 | 5 | 0.0 | 0.0 | 0.00 | 0.04 | 0.00 | 67 | 1012.3 |
| 20260503054632 | 52 | 340 | 0.0 | 1.0 | 0.00 | 0.04 | 0.00 | 61 | 1011.6 |
| 20260503054626 | 52 | 355 | 0.0 | 1.0 | 0.00 | 0.04 | 0.00 | 61 | 1011.7 |
| 20260503053617 | 52 | 9 | 0.0 | 0.0 | 0.00 | 0.04 | 0.00 | 61 | 1011.8 |
| 20260503053111 | 53 | 9 | 0.0 | 0.0 | 0.00 | 0.04 | 0.00 | 61 | 1012.0 |
| 20260503052604 | 53 | 9 | 0.0 | 1.0 | 0.00 | 0.04 | 0.00 | 61 | 1012.0 |
| 20260503052059 | 53 | 10 | 0.0 | 1.0 | 0.00 | 0.04 | 0.00 | 61 | 1012.0 |
| 20260503051553 | 53 | 0 | 0.0 | 2.0 | 0.00 | 0.04 | 0.00 | 61 | 1012.1 |
| 20260503051047 | 53 | 0 | 0.0 | 2.0 | 0.00 | 0.04 | 0.00 | 60 | 1012.1 |
| 20260503050541 | 53 | 333 | 1.0 | 4.0 | 0.00 | 0.04 | 0.00 | 60 | 1011.9 |
| 20260503050034 | 54 | 347 | 0.0 | 4.0 | 0.00 | 0.04 | 0.00 | 61 | 1011.8 |
| 20260503045529 | 54 | 355 | 0.0 | 2.0 | 0.00 | 0.04 | 0.00 | 61 | 1011.9 |
| 20260503045022 | 54 | 19 | 0.0 | 2.0 | 0.00 | 0.04 | 0.00 | 61 | 1012.0 |
| 20260503044517 | 54 | 336 | 0.0 | 2.0 | 0.00 | 0.04 | 0.00 | 62 | 1012.0 |
| 20260503044010 | 54 | 10 | 0.0 | 0.0 | 0.00 | 0.04 | 0.00 | 61 | 1011.9 |
| 20260503043507 | 54 | 23 | 0.0 | 0.0 | 0.00 | 0.04 | 0.00 | 61 | 1012.0 |
| 20260503043501 | 54 | 339 | 0.0 | 2.0 | 0.00 | 0.04 | 0.00 | 61 | 1012.0 |
| 20260503042452 | 55 | 17 | 0.0 | 2.0 | 0.00 | 0.04 | 0.00 | 61 | 1011.9 |
| 20260503041947 | 55 | 5 | 0.0 | 1.0 | 0.00 | 0.04 | 0.00 | 61 | 1011.9 |
| 20260503041441 | 55 | 46 | 1.0 | 5.0 | 0.00 | 0.04 | 0.00 | 61 | 1012.1 |
| 20260503040935 | 55 | 46 | 1.0 | 5.0 | 0.00 | 0.04 | 0.00 | 61 | 1012.0 |
| 20260503040428 | 55 | 17 | 1.0 | 3.0 | 0.00 | 0.04 | 0.00 | 60 | 1011.9 |
| 20260503035923 | 55 | 53 | 0.0 | 3.0 | 0.00 | 0.04 | 0.04 | 60 | 1012.1 |
| 20260503035416 | 55 | 324 | 0.0 | 3.0 | 0.00 | 0.04 | 0.04 | 60 | 1012.1 |
| 20260503034911 | 55 | 344 | 0.0 | 2.0 | 0.00 | 0.04 | 0.04 | 59 | 1012.1 |
| 20260503034404 | 55 | 327 | 0.0 | 4.0 | 0.00 | 0.04 | 0.04 | 59 | 1011.9 |
| 20260503033859 | 55 | 340 | 0.0 | 4.0 | 0.00 | 0.04 | 0.04 | 59 | 1011.9 |
| 20260503033623 | 55 | 355 | 0.0 | 2.0 | 0.00 | 0.04 | 0.04 | 59 | 1011.9 |
| 20260503032847 | 55 | 355 | 0.0 | 2.0 | 0.00 | 0.04 | 0.04 | 59 | 1011.8 |
| 20260503032611 | 56 | 337 | 0.0 | 4.0 | 0.00 | 0.04 | 0.04 | 59 | 1011.8 |
| 20260503031838 | 56 | 0 | 1.0 | 4.0 | 0.00 | 0.04 | 0.04 | 58 | 1011.7 |
| 20260503031831 | 56 | 326 | 2.0 | 5.0 | 0.00 | 0.04 | 0.04 | 58 | 1011.6 |
| 20260503030823 | 56 | 355 | 1.0 | 5.0 | 0.00 | 0.04 | 0.04 | 58 | 1011.7 |
| 20260503030317 | 56 | 355 | 1.0 | 3.0 | 0.00 | 0.04 | 0.04 | 57 | 1011.8 |
| 20260503025811 | 56 | 340 | 1.0 | 4.0 | 0.00 | 0.04 | 0.04 | 57 | 1011.8 |
| 20260503025305 | 56 | 322 | 1.0 | 4.0 | 0.00 | 0.04 | 0.04 | 57 | 1011.9 |
| 20260503025029 | 56 | 329 | 0.0 | 4.0 | 0.00 | 0.04 | 0.04 | 58 | 1011.9 |
| 20260503024253 | 56 | 27 | 1.0 | 3.0 | 0.00 | 0.04 | 0.04 | 58 | 1012.0 |
| 20260503023747 | 56 | 332 | 2.0 | 5.0 | 0.00 | 0.04 | 0.04 | 57 | 1011.9 |
| 20260503023511 | 56 | 348 | 2.0 | 5.0 | 0.00 | 0.04 | 0.04 | 57 | 1012.0 |
| 20260503022735 | 56 | 326 | 1.0 | 5.0 | 0.00 | 0.04 | 0.04 | 57 | 1011.9 |
| 20260503022228 | 56 | 10 | 2.0 | 4.0 | 0.00 | 0.04 | 0.04 | 56 | 1012.0 |
| 20260503021722 | 56 | 325 | 2.0 | 5.0 | 0.00 | 0.04 | 0.04 | 56 | 1011.9 |
| 20260503021217 | 56 | 355 | 3.0 | 5.0 | 0.00 | 0.04 | 0.04 | 56 | 1012.0 |
| 20260503020710 | 56 | 340 | 3.0 | 8.0 | 0.00 | 0.04 | 0.04 | 56 | 1011.9 |
| 20260503020206 | 56 | 325 | 3.0 | 8.0 | 0.00 | 0.04 | 0.04 | 56 | 1011.9 |
| 20260503020200 | 56 | 355 | 2.0 | 11.0 | 0.00 | 0.04 | 0.04 | 56 | 1011.9 |
| 20260503015154 | 56 | 339 | 2.0 | 9.0 | 0.00 | 0.04 | 0.04 | 56 | 1011.9 |
| 20260503014654 | 56 | 314 | 3.0 | 9.0 | 0.00 | 0.04 | 0.04 | 56 | 1011.9 |
| 20260503014155 | 56 | 336 | 3.0 | 8.0 | 0.00 | 0.04 | 0.04 | 55 | 1011.9 |
| 20260503013653 | 56 | 329 | 2.0 | 8.0 | 0.00 | 0.04 | 0.04 | 55 | 1011.7 |
| 20260503013424 | 56 | 311 | 2.0 | 5.0 | 0.00 | 0.04 | 0.04 | 55 | 1011.6 |
| 20260503012654 | 56 | 338 | 2.0 | 6.0 | 0.00 | 0.04 | 0.04 | 55 | 1011.4 |
| 20260503012153 | 56 | 355 | 2.0 | 6.0 | 0.00 | 0.04 | 0.04 | 56 | 1011.5 |
| 20260503011652 | 56 | 343 | 3.0 | 7.0 | 0.00 | 0.04 | 0.04 | 55 | 1011.4 |
| 20260503011153 | 56 | 9 | 2.0 | 7.0 | 0.00 | 0.04 | 0.04 | 55 | 1011.6 |
| 20260503010654 | 56 | 333 | 2.0 | 5.0 | 0.00 | 0.04 | 0.04 | 55 | 1011.7 |
| 20260503010423 | 56 | 32 | 3.0 | 10.0 | 0.00 | 0.04 | 0.04 | 55 | 1011.6 |
| 20260503005653 | 56 | 350 | 3.0 | 10.0 | 0.00 | 0.04 | 0.04 | 55 | 1011.6 |
| 20260503005153 | 56 | 355 | 3.0 | 9.0 | 0.00 | 0.04 | 0.04 | 54 | 1011.5 |
| 20260503004152 | 56 | 284 | 3.0 | 11.0 | 0.00 | 0.04 | 0.04 | 54 | 1011.3 |
| 20260503003652 | 56 | 344 | 3.0 | 9.0 | 0.00 | 0.04 | 0.04 | 55 | 1011.3 |
| 20260503003151 | 56 | 355 | 3.0 | 10.0 | 0.00 | 0.04 | 0.04 | 55 | 1011.4 |
| 20260503002651 | 56 | 0 | 3.0 | 10.0 | 0.00 | 0.04 | 0.04 | 55 | 1011.3 |
| 20260503002144 | 56 | 5 | 3.0 | 9.0 | 0.00 | 0.04 | 0.04 | 56 | 1011.2 |
| 20260503001639 | 56 | 346 | 3.0 | 6.0 | 0.00 | 0.04 | 0.04 | 55 | 1011.1 |
| 20260503001404 | 56 | 5 | 4.0 | 10.0 | 0.00 | 0.04 | 0.04 | 55 | 1011.1 |
| 20260503000627 | 56 | 37 | 4.0 | 10.0 | 0.00 | 0.04 | 0.04 | 55 | 1011.0 |
| 20260503000120 | 56 | 340 | 4.0 | 9.0 | 0.00 | 0.04 | 0.04 | 55 | 1011.0 |
| 20260502235846 | 56 | 5 | 4.0 | 9.0 | 0.00 | 0.04 | 0.04 | 55 | 1010.9 |
| 20260502235340 | 56 | 300 | 4.0 | 11.0 | 0.00 | 0.04 | 0.04 | 55 | 1011.0 |
| 20260502234603 | 56 | 355 | 5.0 | 11.0 | 0.00 | 0.04 | 0.04 | 53 | 1011.0 |
| 20260502234057 | 56 | 303 | 3.0 | 11.0 | 0.00 | 0.04 | 0.04 | 52 | 1010.9 |
| 20260502233550 | 56 | 343 | 2.0 | 5.0 | 0.00 | 0.04 | 0.04 | 51 | 1010.8 |
| 20260502233045 | 56 | 290 | 3.0 | 8.0 | 0.00 | 0.04 | 0.04 | 50 | 1010.8 |
| 20260502232539 | 56 | 10 | 4.0 | 12.0 | 0.00 | 0.04 | 0.04 | 49 | 1010.8 |
| 20260502232033 | 56 | 319 | 4.0 | 12.0 | 0.00 | 0.04 | 0.04 | 49 | 1010.8 |
| 20260502231757 | 56 | 327 | 3.0 | 9.0 | 0.00 | 0.04 | 0.04 | 50 | 1010.9 |
| 20260502231021 | 56 | 355 | 4.0 | 8.0 | 0.00 | 0.04 | 0.04 | 50 | 1010.8 |
| 20260502230530 | 56 | 345 | 3.0 | 11.0 | 0.00 | 0.04 | 0.04 | 50 | 1010.8 |
| 20260502230511 | 56 | 42 | 3.0 | 11.0 | 0.00 | 0.04 | 0.04 | 51 | 1010.7 |
| 20260502225503 | 56 | 340 | 4.0 | 12.0 | 0.00 | 0.04 | 0.04 | 51 | 1010.7 |
| 20260502224956 | 56 | 15 | 5.0 | 12.0 | 0.00 | 0.04 | 0.04 | 51 | 1010.9 |
| 20260502224451 | 56 | 314 | 4.0 | 12.0 | 0.00 | 0.04 | 0.04 | 51 | 1010.9 |
| 20260502224215 | 56 | 5 | 4.0 | 12.0 | 0.00 | 0.04 | 0.04 | 52 | 1010.9 |